sat.trackr.live / text

‹ back to catalog

STARLINK-35903

NORAD 67168 · 2025-303F

PAYLOAD ACTIVE UNKNOWN

§ Identity

Operator
Country
US
Launch date
2025-12-17
Launch site
AFETR
Launch vehicle
Mass (kg)
RCS (m²)

Purposes: comms

External: N2YO · Heavens-Above · Gunter

§ Orbital elements

Epoch: 2026-05-24T23:19:13.152000Z

Period
94.27 min
Inclination
43.0008°
Eccentricity
0.0001134
Mean motion
15.27589591 rev/d
Perigee alt
482.2 km
Apogee alt
483.8 km
Semi-major
6,861.2 km
B*
5.6290e-4
RAAN
239.7336°
Arg perigee
278.7396°
Mean anomaly
81.3328°
Rev number
2,440

§ Raw data

STARLINK-359031 67168U 25303F   26144.97168000  .00015264  00000+0  56290-3 0  99912 67168  43.0008 239.7336 0001134 278.7396  81.3328 15.27589591 24406

JSON: /api/v1/satellites/67168 · /tle

For live sub-satellite position, see the globe view (requires WebGL).

§ Visibility from observer

Set your observer location to see the next 7 days of passes ≥ 10°. The values pass through the URL so the page stays shareable.

No JS? Fill the form by hand. The geolocation button needs JavaScript.